Date_and_time,latitude,longitude,wind_speed,RelWindDirFrom,WindDirFrom,air_pressure,air_temperature,relative_humidity,Temp,platform_speed_wrt_ground,air_pressure_at_mean_sea_level,platform_orientation
2019-12-26 23:50,50.63046,-96.9807633333333,4.6,7.0,243,985.39,-5.4,99,0.77,0.0,1013.73,0.0
2019-12-27 00:00,50.63046,-96.9807633333333,4.9,7.2,242,985.41,-5.3,99,0.78,0.0,1013.75,23.5
2019-12-27 00:10,50.6304666666667,-96.98078,4.6,6.5,242,985.46,-5.2,99,0.78,0.0,1013.79,23.5
2019-12-27 00:20,50.6304483333333,-96.9807566666667,4.5,7.3,245,985.46,-5.2,99,0.78,0.0,1013.79,23.5
2019-12-27 00:30,50.6304566666667,-96.9807533333333,4.6,7.4,251,985.37,-5.0,98,0.77,0.0,1013.69,23.5
2019-12-27 00:40,50.63046,-96.9807583333333,4.1,6.0,249,985.42,-5.0,98,0.77,0.0,1013.73,23.5
2019-12-27 00:50,50.63046,-96.9807616666667,3.8,5.8,242,985.42,-4.9,97,0.77,0.0,1013.74,23.5
2019-12-27 01:00,50.6304583333333,-96.9807633333333,3.9,6.3,227,985.39,-4.9,97,0.77,0.0,1013.71,0.0
2019-12-27 01:10,50.6304583333333,-96.9807633333333,4.6,6.2,218,985.37,-5.0,97,0.77,0.0,1013.70,0.0
2019-12-27 01:20,50.6304583333333,-96.9807633333333,4.8,6.7,211,985.28,-5.1,98,0.78,0.0,1013.62,0.0
2019-12-27 01:30,50.6304583333333,-96.9807616666667,4.6,5.6,203,985.23,-5.1,98,0.77,0.0,1013.57,0.0
2019-12-27 01:40,50.6304483333333,-96.9807483333333,4.3,5.9,203,985.25,-5.1,98,0.76,0.0,1013.59,0.0
2019-12-27 01:50,50.630455,-96.9807516666667,4.3,5.6,196,985.27,-5.1,98,0.76,0.0,1013.61,0.0
2019-12-27 02:00,50.630465,-96.98076,4.3,5.1,196,985.21,-5.1,98,0.76,0.0,1013.54,360.0
2019-12-27 02:10,50.6304616666667,-96.98076,4.2,5.1,194,985.21,-5.2,98,0.76,0.0,1013.55,360.0
2019-12-27 02:20,50.6304616666667,-96.9807616666667,4.6,5.6,194,985.31,-5.4,99,0.76,0.0,1013.65,360.0
2019-12-27 02:30,50.6304583333333,-96.9807633333333,5.5,7.2,191,985.26,-5.7,99,0.75,0.0,1013.61,360.0
2019-12-27 02:40,50.6304566666667,-96.98076,6.3,7.3,183,985.17,-6.0,99,0.75,0.0,1013.53,360.0
2019-12-27 02:50,50.6304566666667,-96.9807583333333,6.9,7.9,185,985.17,-6.4,99,0.75,0.0,1013.55,360.0
2019-12-27 03:00,50.6304433333333,-96.9807483333333,7.0,8.3,186,985.08,-6.7,99,0.75,0.0,1013.48,176.8
2019-12-27 03:10,50.630475,-96.980775,7.0,8.0,188,985.12,-6.8,99,0.75,0.0,1013.54,176.8
2019-12-27 03:20,50.6304566666667,-96.9807633333333,7.1,7.9,185,985.01,-7.0,99,0.75,0.0,1013.43,176.8
2019-12-27 03:30,50.6304533333333,-96.9807666666667,7.0,7.8,183,984.88,-7.2,99,0.75,0.0,1013.31,176.8
2019-12-27 03:40,50.630455,-96.98077,6.8,7.7,178,984.81,-7.6,99,0.76,0.0,1013.26,176.8
2019-12-27 03:50,50.630455,-96.9807866666667,6.8,7.7,184,984.80,-7.9,99,0.76,0.0,1013.27,176.8
2019-12-27 04:00,50.6304583333333,-96.98078,7.0,8.3,185,984.79,-7.9,99,0.76,0.0,1013.26,270.0
2019-12-27 04:10,50.6304616666667,-96.98077,7.5,8.6,184,984.70,-7.9,99,0.76,0.0,1013.18,270.0
2019-12-27 04:20,50.6304616666667,-96.98077,7.7,9.0,187,984.70,-8.1,99,0.76,0.0,1013.20,270.0
2019-12-27 04:30,50.63046,-96.98077,7.1,8.2,187,984.72,-8.2,99,0.76,0.0,1013.25,270.0
2019-12-27 04:40,50.6304583333333,-96.9807683333333,7.1,8.7,191,984.72,-8.3,99,0.77,0.0,1013.27,270.0
2019-12-27 04:50,50.6304583333333,-96.9807666666667,7.2,8.9,194,984.76,-8.3,99,0.77,0.0,1013.33,270.0
2019-12-27 05:00,50.63046,-96.9807666666667,7.2,8.9,198,984.73,-8.4,99,0.76,0.0,1013.31,194.5
2019-12-27 05:10,50.6304583333333,-96.9807666666667,7.0,8.9,201,984.66,-8.6,99,0.76,0.0,1013.26,194.5
2019-12-27 05:20,50.6304583333333,-96.98076,6.7,9.0,206,984.58,-8.8,99,0.76,0.0,1013.21,194.5
2019-12-27 05:30,50.630455,-96.9807583333333,7.3,8.9,206,984.59,-9.1,99,0.77,0.0,1013.25,194.5
2019-12-27 05:40,50.6304516666667,-96.980755,7.2,9.2,202,984.59,-9.3,98,0.77,0.0,1013.27,194.5
2019-12-27 05:50,50.6304416666667,-96.9807533333333,6.4,8.6,201,984.55,-9.5,98,0.77,0.0,1013.24,194.5
2019-12-27 06:00,50.6304533333333,-96.9807766666667,5.4,6.5,201,984.47,-9.7,97,0.76,0.0,1013.18,310.6
2019-12-27 06:10,50.6304566666667,-96.9807633333333,5.3,6.9,192,984.39,-9.9,97,0.76,0.0,1013.11,310.6
2019-12-27 06:20,50.63046,-96.980765,5.8,6.3,181,984.24,-10.4,97,0.76,0.0,1012.99,310.6
2019-12-27 06:30,50.6304616666667,-96.980765,5.3,6.0,186,984.20,-10.7,97,0.76,0.0,1012.97,310.6
2019-12-27 06:40,50.6304616666667,-96.980765,5.3,5.9,188,984.11,-10.9,97,0.76,0.0,1012.90,310.6
2019-12-27 06:50,50.6304633333333,-96.9807666666667,4.8,5.4,191,984.01,-11.0,97,0.75,0.0,1012.80,310.6
2019-12-27 07:00,50.6304633333333,-96.9807666666667,4.0,4.7,199,984.05,-11.0,97,0.76,0.0,1012.84,66.4
2019-12-27 07:10,50.6304916666667,-96.980775,3.8,4.2,188,983.99,-11.0,96,0.76,0.0,1012.80,66.4
2019-12-27 07:20,50.6304733333333,-96.9807566666667,3.9,4.3,186,984.00,-11.2,96,0.76,0.0,1012.85,66.4
2019-12-27 07:30,50.6304733333333,-96.9807633333333,4.7,5.8,191,983.89,-11.2,96,0.75,0.0,1012.74,66.4
2019-12-27 07:40,50.63047,-96.9807616666667,4.0,6.1,197,983.91,-11.1,96,0.75,0.0,1012.76,66.4
2019-12-27 07:50,50.6304583333333,-96.9807516666667,4.7,6.7,208,983.92,-10.5,95,0.75,0.0,1012.75,66.4
2019-12-27 08:00,50.6304733333333,-96.9807683333333,5.0,6.2,206,983.92,-9.8,92,0.75,0.0,1012.72,18.9
2019-12-27 08:10,50.63047,-96.980765,5.2,6.5,203,984.00,-9.6,91,0.75,0.0,1012.82,18.9
2019-12-27 08:20,50.6304683333333,-96.9807683333333,4.8,5.9,196,984.09,-9.7,91,0.75,0.0,1012.94,18.9
2019-12-27 08:30,50.63047,-96.9807666666667,4.5,6.4,189,984.12,-10.1,92,0.75,0.0,1013.00,18.9
2019-12-27 08:40,50.630445,-96.98076,4.8,5.4,187,984.17,-10.4,92,0.75,0.0,1013.08,18.9
2019-12-27 08:50,50.6304583333333,-96.980765,5.0,5.8,185,984.20,-10.6,92,0.75,0.0,1013.11,18.9
2019-12-27 09:00,50.63046,-96.98076,5.5,6.1,179,984.19,-10.8,92,0.75,0.0,1013.12,54.7
2019-12-27 09:10,50.6304616666667,-96.98076,6.1,6.9,182,984.22,-11.2,92,0.75,0.0,1013.19,54.7
2019-12-27 09:20,50.63046,-96.9807616666667,6.9,8.0,185,984.16,-11.6,92,0.75,0.0,1013.14,54.7
2019-12-27 09:30,50.6304683333333,-96.98075,6.9,7.8,186,984.12,-11.6,93,0.75,0.0,1013.10,54.7
2019-12-27 09:40,50.630465,-96.9807566666667,8.1,9.6,184,983.98,-11.8,92,0.75,0.0,1012.93,54.7
2019-12-27 09:50,50.6304633333333,-96.9807566666667,7.2,8.5,189,984.01,-12.0,92,0.75,0.0,1012.93,54.7
2019-12-27 10:00,50.6304616666667,-96.9807583333333,7.2,8.9,189,984.03,-12.0,92,0.75,0.0,1012.95,90.0
2019-12-27 10:10,50.6304633333333,-96.9807583333333,7.6,8.8,187,983.98,-12.0,92,0.75,0.0,1012.90,90.0
2019-12-27 10:20,50.6304733333333,-96.98081,6.4,8.2,193,983.94,-12.0,92,0.75,0.0,1012.88,90.0
2019-12-27 10:30,50.63046,-96.9807683333333,5.3,6.4,195,983.93,-12.0,91,0.74,0.0,1012.88,90.0
2019-12-27 10:40,50.6304583333333,-96.980765,5.6,6.6,186,983.84,-12.1,91,0.74,0.0,1012.81,90.0
2019-12-27 10:50,50.63046,-96.9807616666667,5.7,6.8,188,983.85,-12.3,91,0.74,0.0,1012.84,90.0
2019-12-27 11:00,50.6304616666667,-96.9807583333333,6.1,7.1,191,983.82,-12.4,91,0.73,0.0,1012.84,138.7
2019-12-27 11:10,50.6304633333333,-96.9807583333333,5.9,7.2,190,983.73,-12.5,91,0.73,0.0,1012.78,138.7
2019-12-27 11:20,50.6304616666667,-96.98076,4.9,6.2,196,983.76,-12.6,91,0.72,0.0,1012.82,138.7
2019-12-27 11:30,50.6304616666667,-96.9807616666667,4.5,5.3,184,983.80,-12.7,90,0.72,0.0,1012.87,138.7
2019-12-27 11:40,50.6304616666667,-96.9807633333333,4.5,5.3,187,983.97,-13.0,90,0.72,0.0,1013.07,138.7
2019-12-27 11:50,50.6304716666667,-96.9807666666667,4.5,5.9,193,984.10,-13.0,90,0.72,0.0,1013.21,138.7
2019-12-27 12:00,50.63046,-96.9807633333333,6.4,7.6,190,983.90,-13.0,91,0.72,0.0,1013.00,270.0
2019-12-27 12:10,50.6304666666667,-96.9807566666667,7.1,9.1,205,983.85,-12.3,90,0.72,0.0,1012.91,270.0
2019-12-27 12:20,50.6304683333333,-96.9807583333333,8.4,11.4,212,983.82,-11.4,88,0.72,0.0,1012.83,270.0
2019-12-27 12:30,50.6304633333333,-96.9807633333333,9.4,13.0,213,983.79,-10.8,86,0.72,0.0,1012.76,270.0
2019-12-27 12:40,50.63044,-96.98075,9.9,12.8,216,983.74,-10.3,85,0.72,0.0,1012.70,270.0
2019-12-27 12:50,50.6304566666667,-96.980775,10.5,13.9,220,983.77,-9.9,83,0.72,0.0,1012.71,270.0
2019-12-27 13:00,50.6304566666667,-96.980765,11.0,13.9,221,983.72,-9.7,82,0.72,0.0,1012.65,360.0
2019-12-27 13:10,50.6304533333333,-96.98077,11.4,14.8,222,983.66,-9.4,81,0.72,0.0,1012.58,360.0
2019-12-27 13:20,50.630455,-96.9807583333333,11.0,14.4,223,983.65,-9.2,80,0.72,0.0,1012.58,360.0
2019-12-27 13:30,50.6304566666667,-96.9807616666667,10.6,13.9,225,983.64,-9.1,79,0.72,0.0,1012.56,360.0
2019-12-27 13:40,50.6304566666667,-96.9807616666667,10.4,14.4,227,983.67,-9.0,79,0.71,0.0,1012.60,360.0
2019-12-27 13:50,50.6304866666667,-96.98078,10.9,14.5,224,983.67,-8.9,78,0.71,0.0,1012.59,360.0
2019-12-27 14:00,50.6304716666667,-96.98077,10.1,14.9,224,983.72,-8.8,77,0.71,0.0,1012.59,345.5
2019-12-27 14:10,50.6304666666667,-96.9807666666667,9.7,12.6,224,983.73,-8.8,77,0.71,0.0,1012.55,345.5
2019-12-27 14:20,50.6304633333333,-96.9807666666667,9.8,13.2,223,983.73,-8.7,77,0.70,0.0,1012.52,345.5
2019-12-27 14:30,50.6304616666667,-96.9807633333333,10.1,13.3,222,983.76,-8.6,76,0.70,0.0,1012.51,345.5
2019-12-27 14:40,50.6304633333333,-96.9807633333333,9.8,12.3,221,983.83,-8.4,75,0.70,0.0,1012.55,345.5
2019-12-27 14:50,50.6304633333333,-96.980765,9.8,12.3,222,983.84,-8.1,73,0.70,0.0,1012.54,345.5
2019-12-27 15:00,50.630465,-96.980765,10.2,13.0,220,983.88,-7.9,71,0.69,0.0,1012.55,360.0
2019-12-27 15:10,50.6304566666667,-96.9807833333333,10.8,14.1,218,983.89,-7.5,69,0.69,0.0,1012.53,360.0
2019-12-27 15:20,50.6304566666667,-96.9807866666667,9.9,14.4,220,983.98,-7.1,67,0.69,0.0,1012.59,360.0
2019-12-27 15:30,50.6304566666667,-96.9807783333333,10.0,12.9,219,984.06,-6.8,66,0.68,0.0,1012.65,360.0
2019-12-27 15:40,50.6304583333333,-96.9807783333333,10.4,13.3,220,984.08,-6.5,64,0.68,0.0,1012.65,360.0
2019-12-27 15:50,50.6304583333333,-96.9807816666667,10.1,16.3,218,983.95,-6.2,62,0.68,0.0,1012.50,360.0
2019-12-27 16:00,50.6304583333333,-96.9807733333333,10.3,14.5,218,983.91,-5.9,61,0.68,0.0,1012.44,347.4
2019-12-27 16:10,50.6304583333333,-96.9807616666667,9.9,13.1,216,983.93,-5.6,60,0.68,0.0,1012.44,347.4
2019-12-27 16:20,50.6304616666667,-96.9807733333333,11.0,15.9,216,983.91,-5.4,60,0.68,0.0,1012.40,347.4
2019-12-27 16:30,50.6304566666667,-96.98076,11.1,15.2,217,983.96,-5.3,59,0.68,0.0,1012.44,347.4
2019-12-27 16:40,50.6304583333333,-96.98076,10.8,14.1,216,984.01,-5.1,59,0.68,0.0,1012.46,347.4
2019-12-27 16:50,50.6304583333333,-96.9807616666667,10.4,13.9,220,984.12,-4.6,58,0.68,0.0,1012.53,347.4
2019-12-27 17:00,50.6304566666667,-96.980765,11.0,17.5,220,984.15,-4.2,57,0.68,0.0,1012.52,360.0
2019-12-27 17:10,50.6304566666667,-96.980765,12.3,17.1,218,984.10,-3.7,56,0.68,0.0,1012.42,360.0
2019-12-27 17:20,50.6304383333333,-96.980785,13.1,18.4,219,984.03,-3.3,55,0.68,0.0,1012.32,360.0
2019-12-27 17:30,50.63046,-96.9807616666667,11.7,16.5,220,983.91,-3.1,55,0.68,0.0,1012.17,360.0
2019-12-27 17:40,50.6304583333333,-96.9807516666667,10.0,14.4,218,983.77,-2.9,55,0.68,0.0,1012.00,360.0
2019-12-27 17:50,50.6304616666667,-96.9807616666667,10.9,14.7,217,983.68,-2.7,56,0.68,0.0,1011.88,360.0
2019-12-27 18:00,50.6304583333333,-96.9807616666667,11.4,18.7,219,983.56,-2.5,56,0.68,0.0,1011.72,165.5
2019-12-27 18:10,50.6304583333333,-96.9807616666667,10.9,14.1,219,983.45,-2.2,57,0.68,0.0,1011.58,165.5
2019-12-27 18:20,50.6304583333333,-96.9807616666667,11.7,15.0,221,983.40,-2.0,57,0.68,0.0,1011.52,165.5
2019-12-27 18:30,50.6304583333333,-96.9807666666667,11.2,15.3,216,983.33,-1.9,57,0.68,0.0,1011.44,165.5
2019-12-27 18:40,50.6304583333333,-96.9807683333333,12.4,16.8,215,983.31,-1.8,56,0.68,0.0,1011.38,165.5
2019-12-27 18:50,50.6304583333333,-96.9807683333333,13.5,18.0,212,983.23,-1.7,56,0.68,0.0,1011.27,165.5
2019-12-27 19:00,50.6304583333333,-96.9807683333333,13.1,17.5,213,983.22,-1.6,56,0.68,0.0,1011.22,90.0
2019-12-27 19:10,50.6304566666667,-96.9807683333333,13.6,18.0,211,983.12,-1.5,56,0.68,0.0,1011.10,90.0
2019-12-27 19:20,50.6304416666667,-96.98077,14.1,19.7,213,982.91,-1.3,56,0.68,0.0,1010.87,90.0
2019-12-27 19:30,50.6304583333333,-96.9807666666667,13.8,20.5,214,982.83,-1.1,55,0.68,0.0,1010.76,90.0
2019-12-27 19:40,50.6304516666667,-96.9807633333333,13.9,18.4,211,982.71,-0.9,54,0.69,0.0,1010.61,90.0
2019-12-27 19:50,50.6304516666667,-96.9807666666667,14.5,18.7,212,982.59,-0.6,53,0.70,0.0,1010.47,90.0
2019-12-27 20:00,50.63045,-96.9807683333333,12.4,17.3,201,982.52,-0.8,56,0.71,0.0,1010.39,90.0
2019-12-27 20:10,50.63045,-96.9807683333333,11.7,15.6,198,982.53,-1.7,60,0.71,0.0,1010.43,90.0
2019-12-27 20:20,50.63045,-96.9807683333333,12.4,15.7,203,982.57,-1.4,58,0.72,0.0,1010.46,90.0
2019-12-27 20:30,50.63045,-96.98077,11.6,15.1,201,982.56,-1.2,57,0.72,0.0,1010.43,90.0
2019-12-27 20:40,50.63045,-96.9807683333333,11.4,14.9,198,982.53,-1.4,58,0.71,0.0,1010.41,90.0
2019-12-27 20:50,50.63045,-96.98077,11.8,14.5,203,982.60,-1.4,58,0.72,0.0,1010.47,90.0
2019-12-27 21:00,50.63045,-96.9807716666667,12.1,15.9,202,982.61,-1.3,58,0.72,0.0,1010.47,240.8
2019-12-27 21:10,50.63045,-96.9807716666667,13.1,16.4,200,982.70,-1.3,57,0.72,0.0,1010.55,240.8
2019-12-27 21:20,50.63045,-96.9807716666667,13.8,18.4,202,982.71,-1.4,58,0.72,0.0,1010.56,240.8
2019-12-27 21:30,50.63045,-96.9807716666667,14.7,19.4,201,982.57,-1.5,58,0.72,0.0,1010.40,240.8
2019-12-27 21:40,50.63045,-96.9807733333333,12.8,17.2,202,982.57,-1.6,58,0.73,0.0,1010.39,240.8
2019-12-27 21:50,50.6304516666667,-96.9807733333333,14.5,20.0,203,982.56,-1.8,59,0.74,0.0,1010.41,240.8
2019-12-27 22:00,50.6304516666667,-96.9807733333333,15.2,21.4,201,982.55,-2.1,60,0.74,0.0,1010.46,228.3
2019-12-27 22:10,50.6304516666667,-96.9807733333333,15.2,21.0,198,982.47,-2.3,61,0.75,0.0,1010.38,228.3
2019-12-27 22:20,50.6304516666667,-96.9807716666667,15.4,21.2,197,982.51,-2.8,64,0.75,0.0,1010.43,228.3
2019-12-27 22:30,50.6304466666667,-96.9807766666667,15.9,21.4,197,982.57,-3.2,66,0.75,0.0,1010.52,228.3
2019-12-27 22:40,50.6304533333333,-96.9807683333333,16.9,21.6,193,982.54,-3.3,66,0.75,0.0,1010.49,228.3
2019-12-27 22:50,50.6304583333333,-96.9807716666667,15.6,22.2,192,982.59,-3.4,66,0.76,0.0,1010.54,228.3
2019-12-27 23:00,50.6304566666667,-96.9807716666667,15.4,22.2,190,982.55,-3.5,67,0.77,0.0,1010.52,270.0
2019-12-27 23:10,50.6304566666667,-96.9807716666667,14.4,18.7,192,982.58,-3.6,67,0.77,0.0,1010.56,270.0
2019-12-27 23:20,50.6304583333333,-96.9807716666667,14.3,18.7,192,982.66,-3.7,67,0.77,0.0,1010.64,270.0
2019-12-27 23:30,50.630475,-96.980775,13.4,17.6,191,982.78,-3.9,69,0.78,0.0,1010.78,270.0
